Date,TemperatureHighF,TemperatureAvgF,TemperatureLowF,DewpointHighF,DewpointAvgF,DewpointLowF,HumidityHigh,HumidityAvg,HumidityLow,PressureMaxIn,PressureMinIn,WindSpeedMaxMPH,WindSpeedAvgMPH,GustSpeedMaxMPH,PrecipitationSumIn
2013-1-1,60,41,33,45,36,29,98,82,49,30.27,30.18,11,1,11,0.00
2013-1-2,56,39,29,43,33,27,91,81,59,30.21,30.09,6,1,6,0.00
2013-1-3,55,40,30,44,35,27,93,83,57,30.27,30.12,6,1,6,0.00
2013-1-4,61,42,33,48,38,31,94,84,60,30.27,30.15,6,0,6,0.00
2013-1-5,51,43,34,48,41,32,98,93,82,30.24,30.03,10,1,10,0.00
2013-1-6,54,46,38,54,45,38,98,98,98,30.18,30.03,5,0,5,0.00
2013-1-7,62,44,36,60,43,36,98,98,91,30.21,30.12,6,1,6,0.00
2013-1-8,61,46,38,54,44,38,98,94,78,30.21,30.09,5,0,5,0.00
2013-1-9,52,44,36,51,43,35,98,97,95,30.15,29.94,17,1,17,0.00
2013-1-10,53,39,32,49,37,32,98,92,60,30.18,30.03,16,2,16,0.00
2013-1-11,56,41,33,44,36,31,93,84,58,30.24,30.09,6,1,6,0.00
2013-1-12,50,38,30,39,33,25,92,80,57,30.24,30.12,5,1,6,0.00
2013-1-13,52,36,26,38,28,22,86,72,49,30.24,30.15,15,2,15,0.65
2013-1-14,57,41,30,36,27,18,78,59,41,30.36,30.21,15,2,15,0.00
2013-1-15,62,40,31,48,33,26,84,77,60,30.44,30.36,6,1,6,0.00
2013-1-16,64,41,30,50,34,26,87,79,58,30.39,30.24,6,0,6,0.00
2013-1-17,68,42,30,53,36,27,88,81,59,30.27,30.12,4,0,4,0.00
2013-1-18,68,43,32,55,38,29,89,82,63,30.18,30.09,5,0,5,0.00
2013-1-19,69,44,32,55,38,29,88,80,60,30.24,30.12,4,0,5,0.00
2013-1-20,70,44,32,55,37,28,86,78,57,30.21,30.09,6,1,6,0.00
2013-1-21,71,44,32,55,38,28,86,78,54,30.15,30.06,6,1,6,0.00
2013-1-22,66,46,34,54,40,30,87,80,63,30.09,29.94,5,0,5,0.00
2013-1-23,50,48,47,50,46,41,98,92,82,30.06,29.91,10,0,10,0.65
2013-1-24,64,52,49,62,52,48,98,98,91,30.15,30.03,5,0,5,0.05
2013-1-25,66,54,48,63,53,48,98,97,92,30.18,30.00,5,1,5,0.00
2013-1-26,67,50,40,56,47,37,98,90,68,30.03,29.94,13,2,15,0.00
2013-1-27,65,44,35,52,40,33,96,84,62,30.15,30.03,9,2,9,0.00
2013-1-28,63,46,37,51,40,34,91,82,65,30.27,30.12,12,2,12,0.00
2013-1-29,48,42,38,42,38,36,90,86,80,30.30,30.27,3,1,3,0.00
2013-1-30,74,50,40,58,44,36,89,79,55,30.33,30.24,6,1,6,0.00
2013-1-31,72,49,37,58,42,33,88,79,59,30.27,30.15,2,0,2,0.00
2013-2-1,73,50,37,59,43,34,88,79,60,30.18,30.09,5,0,5,0.00
2013-2-2,66,48,41,56,44,37,91,84,71,30.27,30.18,5,0,5,0.00
2013-2-3,69,50,41,56,45,37,94,84,64,30.24,30.12,6,1,6,0.00
2013-2-4,63,48,39,54,43,36,92,85,71,30.15,30.03,6,0,6,0.00
2013-2-5,64,50,42,53,45,38,94,85,71,30.15,30.00,5,1,5,0.00
2013-2-6,66,46,37,51,40,34,89,79,55,30.18,30.06,5,1,5,0.00
2013-2-7,61,47,38,60,46,35,98,95,79,30.12,29.94,5,2,5,0.21
2013-2-8,63,44,35,57,41,34,98,91,75,29.97,29.88,4,0,4,0.00
2013-2-9,66,44,33,49,36,29,90,75,48,30.06,29.97,13,1,13,0.00
2013-2-10,68,45,32,50,36,27,80,71,51,30.09,29.97,7,1,7,0.00
2013-2-11,72,49,37,49,36,30,76,63,41,30.21,30.06,9,1,9,0.00
2013-2-12,68,47,35,50,37,28,76,69,52,30.33,30.21,8,1,8,0.00
2013-2-13,71,48,35,52,38,29,79,70,49,30.33,30.18,6,1,6,0.00
2013-2-14,75,51,38,55,41,32,81,70,47,30.24,30.12,3,1,3,0.00
2013-2-15,76,52,39,55,41,32,78,67,46,30.27,30.18,8,1,8,0.00
2013-2-16,74,53,41,53,41,34,77,66,45,30.21,30.03,6,1,6,0.00
2013-2-17,69,49,38,50,37,31,77,66,46,30.03,29.94,8,1,8,0.00
2013-2-18,60,46,36,46,36,28,76,69,56,30.00,29.88,8,1,8,0.00
2013-2-19,52,43,35,51,41,32,98,93,72,29.91,29.71,15,2,15,0.00
2013-2-20,63,44,32,54,39,32,98,85,59,30.03,29.82,12,3,12,0.00
2013-2-21,67,48,35,48,38,32,86,70,46,30.15,30.03,8,2,8,0.00
2013-2-22,69,49,36,48,38,30,79,67,45,30.24,30.15,9,1,9,0.00
2013-2-23,66,50,41,45,37,28,79,62,42,30.24,30.15,12,3,12,0.00
2013-2-24,72,49,36,45,32,26,66,53,35,30.24,30.12,9,3,9,0.00
2013-2-25,73,50,37,49,35,26,67,57,39,30.24,30.12,8,2,8,0.00
2013-2-26,74,50,36,47,34,26,70,55,37,30.18,30.09,2,1,2,0.00
2013-2-27,74,52,37,49,35,25,66,54,38,30.33,30.18,6,1,6,0.00
2013-2-28,76,57,47,56,45,37,73,64,47,30.41,30.33,9,1,9,0.00
2013-3-1,78,56,43,57,45,37,78,67,47,30.39,30.21,10,1,10,0.00
2013-3-2,73,58,48,57,47,40,78,68,56,30.24,30.03,6,1,6,0.00
2013-3-3,73,56,47,54,45,39,79,68,47,30.06,30.00,8,2,8,0.00
2013-3-4,63,50,40,51,42,33,86,75,59,30.12,30.03,8,2,8,0.00
2013-3-5,58,48,38,48,40,31,98,76,61,30.03,29.76,15,3,15,0.00
2013-3-6,60,49,39,56,45,36,98,88,65,30.03,29.76,15,3,15,0.96
2013-3-7,58,46,37,48,40,34,90,80,62,29.97,29.85,9,1,9,0.00
2013-3-8,69,49,37,52,40,34,88,74,50,30.00,29.79,10,2,10,0.00
2013-3-9,74,52,37,53,40,32,81,67,44,30.30,30.00,9,1,10,0.00
2013-3-10,74,53,38,51,39,31,76,60,38,30.33,30.21,8,2,8,0.00
2013-3-11,74,52,38,53,39,29,72,61,42,30.24,30.06,0,0,0,0.00
2013-3-12,78,54,41,58,42,33,74,65,47,30.15,30.03,3,1,3,0.00
2013-3-13,81,57,42,59,46,35,77,66,46,30.15,30.03,3,0,3,0.00
2013-3-14,75,57,46,58,46,39,77,68,50,30.15,30.06,4,0,4,0.00
2013-3-15,78,57,45,56,45,38,77,65,46,30.12,30.00,9,1,9,0.00
2013-3-16,79,57,44,55,43,36,77,61,38,30.09,30.00,14,2,14,0.00
2013-3-17,73,55,43,49,39,32,67,56,41,30.12,30.00,10,2,10,0.00
2013-3-18,72,54,41,51,40,31,69,58,47,30.09,30.00,10,1,10,0.00
2013-3-19,61,53,45,49,42,34,96,69,56,30.12,30.03,7,1,7,0.13
2013-3-20,61,53,48,61,53,47,98,98,96,30.12,30.03,10,1,10,0.61
2013-3-21,70,51,39,68,50,38,98,96,82,30.12,29.97,8,2,8,0.00
2013-3-22,73,51,38,53,43,37,98,76,42,30.09,30.00,9,2,9,0.00
2013-3-23,74,52,37,50,38,30,75,62,40,30.12,30.00,10,2,10,0.00
2013-3-24,77,54,40,55,41,32,74,62,44,30.06,29.94,11,2,11,0.00
2013-3-25,67,51,41,49,40,33,77,66,50,30.00,29.91,9,2,9,0.00
2013-3-26,71,53,41,53,42,35,80,68,47,29.97,29.91,10,2,10,0.00
2013-3-27,63,54,44,53,45,36,79,73,68,30.00,29.91,8,1,8,0.00
2013-3-28,65,57,49,63,53,44,98,88,74,30.06,29.97,6,1,6,0.00
2013-3-29,81,58,48,68,53,47,98,84,48,30.06,30.00,11,1,11,0.12
2013-3-30,68,58,52,65,55,48,98,89,73,30.06,29.97,10,1,10,0.00
2013-3-31,67,57,52,64,56,51,98,98,93,30.03,29.97,8,1,8,0.61
2013-4-1,64,55,48,63,54,48,98,98,98,30.15,30.03,8,1,8,0.22
2013-4-2,73,55,44,69,53,44,98,95,85,30.15,30.06,10,1,10,0.00
2013-4-3,80,58,47,67,53,46,98,87,58,30.12,29.94,8,1,8,0.00
2013-4-4,61,55,50,60,54,48,98,97,86,30.09,29.94,9,1,9,1.34
2013-4-5,67,58,52,66,57,51,98,98,98,30.18,30.09,9,1,10,0.35
2013-4-6,73,58,53,71,57,52,98,96,84,30.15,30.12,9,2,10,0.00
2013-4-7,70,57,50,62,53,46,98,88,60,30.15,29.79,12,3,12,0.00
2013-4-8,71,52,42,59,47,41,98,83,54,30.03,29.79,14,4,14,0.00
2013-4-9,80,58,42,55,44,37,84,64,35,30.09,30.00,18,3,18,0.00
2013-4-10,90,65,50,62,49,41,73,57,36,30.15,30.00,12,2,12,0.00
2013-4-11,83,63,49,56,46,40,71,56,38,30.06,29.79,10,2,10,0.00
2013-4-12,81,59,46,56,44,37,72,58,35,29.88,29.79,9,2,9,0.00
2013-4-13,82,60,46,56,43,33,72,55,36,29.88,29.79,14,3,14,0.00
2013-4-14,79,58,44,48,37,30,60,48,32,29.91,29.82,22,4,22,0.00
2013-4-15,70,54,42,41,35,28,70,51,33,29.94,29.82,22,4,22,0.00
2013-4-16,77,55,39,44,33,25,60,45,30,30.15,29.94,11,3,13,0.00
2013-4-17,80,59,45,42,32,26,49,38,21,30.27,30.15,15,3,15,0.00
2013-4-18,84,61,46,50,36,28,51,41,30,30.24,30.15,10,2,10,0.04
2013-4-19,87,64,47,58,42,31,61,47,34,30.21,30.06,17,2,17,0.00
2013-4-20,86,72,56,56,46,37,55,39,31,30.06,29.94,10,2,10,0.00
2013-4-21,91,65,48,58,43,35,64,46,28,30.00,29.91,8,1,8,0.00
2013-4-22,94,68,52,57,44,36,59,43,28,29.94,29.85,10,1,10,0.00
2013-4-23,88,67,51,51,38,30,50,35,24,29.91,29.85,15,3,15,0.00
2013-4-24,72,56,48,50,42,32,71,58,44,29.94,29.82,10,2,10,0.00
2013-4-25,74,58,50,52,45,39,72,62,45,30.12,29.94,9,2,9,0.00
2013-4-26,79,58,49,56,46,38,73,63,44,30.21,30.09,12,2,12,0.00
2013-4-27,84,60,49,59,47,39,81,64,41,30.21,30.03,8,2,8,0.00
2013-4-28,89,64,45,62,47,36,73,56,38,30.03,29.85,8,1,8,0.00
2013-4-29,97,71,55,62,49,42,65,47,30,29.88,29.76,13,2,13,0.00
2013-4-30,92,69,53,52,36,-11,59,36,2,29.88,29.76,13,3,13,0.00
2013-5-1,94,71,57,38,18,-19,35,18,2,30.09,29.85,13,3,13,0.00
2013-5-2,99,69,50,57,34,-11,47,31,2,30.15,30.06,9,2,9,0.00
2013-5-3,101,70,50,58,37,25,42,31,11,30.06,29.79,9,1,9,0.00
2013-5-4,89,65,51,58,42,33,72,45,28,29.79,29.56,10,2,10,0.00
2013-5-5,70,60,56,50,47,45,74,63,46,29.79,29.62,10,1,10,0.00
2013-5-6,72,60,50,54,48,43,82,66,47,29.94,29.79,7,1,7,0.00
2013-5-7,80,62,51,57,50,43,87,66,41,30.03,29.94,11,2,11,0.00
2013-5-8,68,56,50,54,49,43,95,78,54,30.12,30.03,10,2,10,0.00
2013-5-9,73,58,49,54,49,44,92,73,47,30.15,30.06,13,2,13,0.00
2013-5-10,79,61,50,58,50,43,91,70,44,30.15,30.06,10,2,10,0.00
2013-5-11,87,63,47,62,50,42,91,65,41,30.12,30.03,9,2,9,0.00
2013-5-12,85,63,45,60,48,40,89,62,41,30.12,30.00,11,2,11,0.00
2013-5-13,96,67,46,66,50,41,87,57,36,30.06,29.91,9,2,9,0.00
2013-5-14,92,67,51,60,48,40,76,53,33,29.94,29.85,8,2,8,0.00
2013-5-15,84,66,49,56,47,40,73,50,36,30.00,29.94,9,2,9,0.00
2013-5-16,77,63,55,56,47,42,69,57,41,30.00,29.91,12,2,12,0.00
2013-5-18,85,74,60,55,48,40,49,40,35,30.09,30.03,15,5,15,0.00
2013-5-19,88,66,50,56,44,39,70,47,28,30.12,29.97,10,2,10,0.00
2013-5-20,93,69,51,56,45,39,65,44,22,30.00,29.88,13,2,13,0.00
2013-5-21,78,64,50,51,42,34,69,45,31,29.97,29.88,17,6,17,0.00
2013-5-22,73,59,42,43,36,25,55,42,31,30.00,29.85,12,3,12,0.00
2013-5-23,75,59,45,48,39,33,65,48,35,29.97,29.88,10,2,10,0.00
2013-5-24,76,59,45,51,41,34,71,53,36,29.97,29.88,11,2,11,0.00
2013-5-25,74,60,48,51,44,38,68,56,42,30.00,29.91,12,2,12,0.00
2013-5-26,73,61,52,65,50,43,84,66,48,30.09,30.00,13,2,13,0.00
2013-5-27,64,57,50,59,51,42,98,81,70,30.09,29.97,9,1,9,0.00
2013-5-28,72,61,56,69,58,52,98,91,75,29.97,29.91,9,2,9,0.53
2013-5-29,77,64,56,60,53,44,89,69,45,29.94,29.85,11,2,11,0.00
2013-5-30,58,53,50,45,44,42,75,71,60,29.94,29.91,5,1,5,0.00
2013-5-31,89,73,53,58,50,43,70,47,29,30.00,29.91,10,2,10,0.04
2013-6-1,91,73,58,77,50,42,77,46,31,29.91,29.79,11,2,11,0.00
2013-6-2,87,70,59,58,48,41,79,45,35,29.79,29.65,10,2,11,0.00
2013-6-3,73,61,52,55,49,43,77,66,50,29.88,29.71,10,2,10,0.00
2013-6-4,68,58,54,56,50,47,84,74,59,29.97,29.85,11,3,11,0.00
2013-6-5,72,59,53,64,52,48,86,77,55,29.97,29.91,11,3,11,0.00
2013-6-6,78,60,51,61,51,47,90,75,48,29.94,29.82,9,2,9,0.00
2013-6-7,94,68,52,78,56,48,89,69,35,29.88,29.71,8,2,8,0.00
2013-6-8,91,70,58,64,55,47,77,60,38,29.82,29.71,10,2,10,0.00
2013-6-9,66,60,57,63,54,49,93,83,74,29.88,29.82,10,3,10,0.00
2013-6-10,61,58,56,58,55,52,97,90,82,29.94,29.79,7,1,7,0.08
2013-6-11,77,64,55,71,57,49,91,79,57,29.97,29.85,9,1,9,0.00
2013-6-12,85,66,52,56,46,37,75,51,28,29.97,29.88,13,3,13,0.00
2013-6-13,85,67,53,69,44,36,77,45,30,30.06,29.97,13,3,13,0.00
2013-6-14,88,69,56,52,44,39,57,42,25,30.00,29.79,11,2,11,0.00
2013-6-15,82,63,50,56,46,40,71,57,41,29.97,29.79,10,2,10,0.00
2013-6-16,86,66,49,59,48,41,78,54,33,30.06,29.97,10,2,10,0.00
2013-6-17,82,65,52,57,48,42,71,56,41,30.06,29.97,12,2,12,0.00
2013-6-18,76,64,52,52,46,40,75,55,39,30.00,29.91,15,4,15,0.00
2013-6-19,80,65,50,54,45,40,68,50,36,30.03,29.97,12,3,12,0.00
2013-6-20,84,67,53,53,45,40,65,46,33,30.00,29.88,9,2,9,0.00
2013-6-21,86,68,53,69,48,39,77,51,33,29.94,29.88,9,2,9,0.00
2013-6-22,90,72,56,55,47,41,61,42,30,29.91,29.79,13,2,16,0.00
2013-6-23,70,63,57,61,53,44,84,71,44,29.85,29.79,13,2,13,0.00
2013-6-24,63,60,57,60,56,53,98,89,82,29.88,29.79,6,1,6,0.00
2013-6-25,64,60,59,64,60,59,98,98,98,29.97,29.85,8,1,8,2.67
2013-6-26,77,67,62,75,65,60,98,94,78,30.03,29.94,8,1,8,0.21
2013-6-27,88,70,59,75,64,58,98,84,48,30.09,30.00,10,1,10,0.00
2013-6-28,98,76,61,73,64,58,91,71,33,30.03,29.88,8,2,8,0.00
2013-6-29,93,76,64,83,64,54,79,66,41,29.91,29.79,8,1,8,0.00
2013-6-30,96,76,62,66,59,52,94,59,35,29.82,29.74,7,1,7,0.00
2013-7-1,96,75,59,82,61,53,95,67,35,29.82,29.79,7,2,7,0.00
2013-7-2,92,73,60,65,57,51,77,59,39,29.91,29.79,10,2,10,0.00
2013-7-3,86,70,59,77,59,52,89,69,43,29.91,29.76,9,2,9,0.00
2013-7-4,96,78,64,66,58,42,79,52,25,29.79,29.65,15,2,15,0.00
2013-7-5,85,70,58,59,49,40,66,49,33,29.74,29.68,10,2,10,0.08
2013-7-6,79,64,55,59,52,47,79,65,46,29.79,29.74,10,2,10,0.00
2013-7-7,79,62,53,71,53,47,88,74,49,29.85,29.76,10,2,10,0.00
2013-7-8,82,63,53,61,52,48,87,71,44,29.97,29.85,10,2,10,0.00
2013-7-9,89,67,52,77,54,46,88,66,33,30.03,29.91,9,2,9,0.00
2013-7-10,80,62,52,59,50,45,84,65,42,29.97,29.88,10,2,10,0.00
2013-7-11,78,60,51,71,52,47,89,76,49,29.94,29.85,10,2,11,0.00
2013-7-12,79,62,54,60,51,46,87,71,44,29.91,29.82,10,2,13,0.00
2013-7-13,83,64,50,69,51,44,84,66,41,29.94,29.88,10,2,10,0.00
2013-7-14,81,62,51,59,50,45,85,68,42,29.97,29.88,10,2,10,0.00
2013-7-15,71,58,51,65,51,46,93,79,60,29.91,29.82,13,2,13,0.00
2013-7-16,67,59,54,57,53,50,88,80,68,30.00,29.85,9,2,9,0.00
2013-7-17,80,63,52,62,54,48,90,74,45,30.09,30.00,8,2,8,0.00
2013-7-18,84,64,53,62,53,47,91,70,41,30.03,29.91,9,2,9,0.00
2013-7-19,86,64,51,74,54,46,91,71,40,29.94,29.79,9,2,9,0.00
2013-7-20,87,64,52,63,52,45,87,66,39,29.82,29.71,8,2,8,0.00
2013-7-21,81,63,54,61,52,46,83,67,43,29.88,29.76,8,2,8,0.00
2013-7-22,83,65,53,60,54,47,85,68,45,29.97,29.88,11,2,11,0.00
2013-7-23,76,66,60,61,55,51,82,68,49,30.00,29.91,8,2,8,0.00
2013-7-24,87,68,56,61,54,48,87,64,39,29.97,29.88,9,2,9,0.00
2013-7-25,81,64,55,72,54,48,87,71,47,30.03,29.91,11,2,11,0.00
2013-7-26,79,62,54,61,52,47,89,72,47,30.09,30.00,9,2,9,0.00
2013-7-27,77,60,54,63,53,49,89,77,50,30.03,29.85,12,2,12,0.00
2013-7-28,75,59,53,61,52,48,91,78,52,29.88,29.79,11,2,11,0.00
2013-7-29,74,60,54,69,54,49,91,81,61,30.00,29.82,11,2,11,0.00
2013-7-30,75,60,54,60,52,48,91,78,50,30.09,30.00,10,2,10,0.00
2013-7-31,78,62,54,69,54,48,92,78,54,30.06,29.94,10,2,10,0.00
2013-8-1,81,64,50,57,51,46,85,64,42,30.03,29.91,8,2,10,0.00
2013-8-2,84,66,52,58,50,46,80,60,38,29.94,29.85,10,2,10,0.00
2013-8-3,79,62,53,59,50,45,83,66,44,29.94,29.91,10,2,10,0.00
2013-8-4,74,60,53,59,51,48,85,75,50,30.00,29.94,10,2,10,0.00
2013-8-5,76,60,53,59,51,46,87,72,46,30.00,29.91,10,2,10,0.00
2013-8-6,73,60,52,59,52,48,88,75,55,30.03,29.97,10,2,10,0.00
2013-8-7,70,61,56,58,54,51,86,77,64,30.09,30.03,10,2,10,0.00
2013-8-8,74,62,56,61,55,50,91,78,56,30.03,29.91,11,2,11,0.00
2013-8-9,74,61,54,60,53,50,88,76,54,29.97,29.91,10,2,10,0.00
2013-8-10,77,63,57,62,55,52,88,77,54,30.03,29.97,12,2,12,0.00
2013-8-11,82,63,55,62,54,49,90,74,47,30.00,29.91,10,2,10,0.00
2013-8-12,81,62,54,62,53,47,89,73,43,29.97,29.91,10,2,10,0.00
2013-8-13,88,66,52,61,52,47,89,64,32,29.97,29.88,10,2,10,0.00
2013-8-14,89,68,53,61,52,46,78,60,37,29.94,29.85,10,2,10,0.00
2013-8-15,88,70,58,66,58,52,83,68,46,29.94,29.88,10,2,10,0.00
2013-8-16,87,69,58,68,58,51,88,70,42,29.97,29.91,10,2,10,0.00
2013-8-17,87,69,56,63,56,50,84,65,44,29.97,29.82,10,1,10,0.00
2013-8-18,92,72,57,66,56,51,82,60,36,29.88,29.76,8,1,8,0.00
2013-8-19,87,71,60,61,56,50,75,59,39,29.88,29.79,8,2,8,0.00
2013-8-20,84,66,60,63,56,52,85,73,46,29.91,29.82,9,2,9,0.00
2013-8-21,78,63,55,61,54,48,85,73,47,29.94,29.85,10,2,10,0.00
2013-8-22,74,62,54,61,53,48,87,75,52,29.97,29.88,10,2,10,0.00
2013-8-23,83,65,57,61,54,50,85,70,45,29.91,29.79,8,2,8,0.00
2013-8-24,80,63,53,61,53,48,84,71,48,29.88,29.79,10,1,10,0.00
2013-8-25,80,67,59,66,58,53,86,74,54,29.94,29.85,11,2,11,0.00
2013-8-26,83,67,59,62,56,50,89,71,44,30.00,29.88,10,2,10,0.00
2013-8-27,87,67,54,60,53,48,81,63,39,29.88,29.79,10,2,10,0.00
2013-8-28,83,66,54,65,57,50,87,73,52,29.94,29.82,10,2,10,0.00
2013-8-29,85,69,61,68,60,56,92,76,48,30.06,29.91,9,2,9,0.00
2013-8-30,92,72,60,66,58,53,89,66,37,30.03,29.88,9,1,9,0.00
2013-8-31,74,63,58,54,52,50,77,66,48,29.94,29.88,10,2,10,0.00
2013-9-1,82,66,57,71,57,51,86,74,52,29.91,29.85,9,2,9,0.00
2013-9-2,83,68,59,65,59,54,88,73,51,29.94,29.88,10,2,10,0.00
2013-9-3,82,66,55,59,54,50,86,68,43,29.97,29.91,11,2,11,0.00
2013-9-4,84,67,54,60,54,49,88,67,41,30.00,29.91,10,2,10,0.00
2013-9-5,86,68,54,59,52,47,83,60,39,29.97,29.91,11,2,11,0.00
2013-9-6,93,71,55,58,50,42,76,51,29,29.97,29.82,9,2,9,0.00
2013-9-7,95,73,57,71,48,42,65,43,26,29.85,29.79,10,1,10,0.00
2013-9-8,94,69,53,59,49,42,74,52,28,29.85,29.76,11,1,11,0.00
2013-9-9,96,69,53,61,51,45,74,55,29,29.79,29.68,11,1,11,0.00
2013-9-10,77,64,57,62,56,49,86,76,54,29.91,29.74,10,2,10,0.00
2013-9-11,71,64,62,61,58,57,89,81,67,30.00,29.91,7,2,7,0.00
2013-9-12,82,66,58,66,58,53,89,78,54,29.97,29.88,8,2,8,0.00
2013-9-13,83,64,56,62,55,51,91,75,45,29.88,29.74,12,2,12,0.00
2013-9-14,81,63,55,63,54,49,90,74,48,29.79,29.71,11,2,11,0.00
2013-9-15,80,63,53,62,54,48,88,74,48,29.85,29.74,13,2,13,0.00
2013-9-16,86,66,54,62,54,49,92,70,40,29.88,29.74,10,1,10,0.00
2013-9-17,71,59,52,54,48,45,84,69,44,29.88,29.79,9,1,9,0.00
2013-9-18,86,67,55,53,47,40,72,51,31,29.88,29.79,10,2,10,0.00
2013-9-19,88,66,52,54,44,38,68,48,26,29.85,29.74,9,1,9,0.00
2013-9-20,78,62,48,60,50,38,82,66,53,29.82,29.74,14,2,14,0.00
2013-9-21,67,62,59,66,60,54,98,94,73,29.88,29.76,14,2,14,0.74
2013-9-22,108,75,58,67,52,46,73,50,19,30.00,29.88,11,2,11,0.00
2013-9-23,83,66,55,61,54,48,82,65,44,30.00,29.59,10,1,10,0.00
2013-9-24,84,70,57,57,50,43,69,51,34,29.97,29.88,13,3,13,0.00
2013-9-25,80,61,51,51,44,37,73,54,33,29.91,29.79,14,3,14,0.00
2013-9-26,83,60,47,48,39,35,64,48,25,29.97,29.85,6,2,6,0.00
2013-9-27,85,62,50,50,38,30,55,44,20,30.06,29.97,7,2,7,0.00
2013-9-28,87,62,48,51,40,31,61,45,21,30.06,30.00,8,2,8,0.00
2013-9-29,76,64,56,62,55,45,94,75,59,30.09,30.03,10,2,10,0.00
2013-9-30,76,65,54,70,62,50,98,90,67,30.03,29.94,8,2,8,0.00
2013-10-1,82,60,46,59,49,43,89,70,38,30.00,29.88,6,2,6,0.00
2013-10-2,83,62,50,54,45,36,76,56,31,30.00,29.91,12,2,12,0.17
2013-10-3,81,60,46,47,37,30,62,44,28,30.06,29.94,10,2,10,0.00
2013-10-4,88,67,54,43,31,20,36,27,11,30.06,30.00,11,3,11,0.00
2013-10-5,91,65,50,48,19,-20,36,22,2,30.18,30.06,9,2,9,0.00
2013-10-6,89,62,46,50,29,-12,43,30,2,30.12,29.97,6,1,6,0.00
2013-10-7,87,62,48,47,31,-13,42,33,2,29.97,29.82,9,1,9,0.00
2013-10-8,83,60,46,50,38,31,58,44,29,29.88,29.68,8,1,8,0.00
2013-10-9,79,60,48,47,38,33,60,45,30,29.74,29.59,8,2,8,0.00
2013-10-10,79,58,49,50,38,31,59,48,35,29.97,29.74,6,1,6,0.00
2013-10-11,75,55,46,51,42,35,81,62,39,30.06,29.94,4,0,4,0.00
2013-10-12,78,55,42,52,40,34,75,59,36,29.97,29.85,8,2,8,0.00
2013-10-13,81,58,46,50,40,32,73,53,31,30.03,29.91,10,2,10,0.00
2013-10-14,84,58,44,51,37,30,64,47,28,30.09,29.97,9,1,9,0.00
2013-10-15,88,59,44,50,34,26,55,41,19,30.03,29.91,6,1,6,0.00
2013-10-16,88,59,44,50,32,-12,48,37,2,30.06,29.97,7,1,7,0.00
2013-10-17,87,60,46,48,31,-1,47,35,6,30.06,29.94,8,1,8,0.00
2013-10-18,85,58,44,51,35,26,55,43,29,30.03,29.97,8,1,8,0.00
2013-10-19,88,59,43,53,38,30,62,46,28,30.06,29.97,7,1,7,0.00
2013-10-20,78,56,43,52,40,33,72,55,37,30.00,29.88,7,1,7,0.00
2013-10-21,71,54,44,54,44,38,85,71,49,30.00,29.91,6,1,6,0.00
2013-10-22,74,54,43,55,45,39,88,71,48,30.00,29.88,6,1,6,0.00
2013-10-23,71,52,43,55,44,39,92,77,52,29.94,29.85,6,1,6,0.00
2013-10-24,66,53,47,53,46,42,90,77,58,30.09,29.94,6,1,6,0.00
2013-10-25,70,54,42,55,45,38,88,73,54,30.15,30.06,6,1,6,0.00
2013-10-26,77,56,44,54,43,37,85,65,38,30.12,30.00,6,1,6,0.00
2013-10-27,64,55,50,52,43,38,85,65,58,30.00,29.62,8,2,8,0.00
2013-10-28,67,59,48,45,41,38,69,51,44,29.79,29.65,7,2,7,0.00
2013-10-29,64,51,44,49,42,36,81,70,56,30.03,29.79,6,1,6,0.00
2013-10-30,66,50,41,51,40,35,83,69,50,30.12,30.03,7,1,7,0.00
2013-10-31,71,53,42,50,40,34,78,63,45,30.15,30.03,5,1,6,0.00
2013-11-1,76,55,45,52,41,36,74,60,42,30.12,30.00,7,1,7,0.00
2013-11-2,71,55,45,50,41,35,71,59,46,30.00,29.85,8,1,8,0.00
2013-11-3,63,51,42,40,35,30,66,55,41,30.03,29.88,10,2,10,0.00
2013-11-4,68,52,40,40,32,28,64,48,33,30.06,29.88,14,2,14,0.00
2013-11-5,72,55,47,44,34,28,52,44,34,30.18,30.06,6,2,6,0.00
2013-11-6,72,56,47,46,36,30,54,46,36,30.24,30.15,6,1,6,0.00
2013-11-7,73,58,50,45,37,32,57,46,34,30.15,30.03,7,1,7,0.00
2013-11-8,73,55,44,53,40,31,74,58,41,30.06,29.91,10,2,10,0.00
2013-11-9,72,52,40,50,38,30,72,61,44,30.03,29.94,7,1,7,0.00
2013-11-10,65,52,44,52,43,36,79,71,59,30.09,29.97,6,2,6,0.00
2013-11-11,63,54,45,52,46,38,82,75,66,30.18,30.03,6,1,6,0.00
2013-11-12,67,57,51,51,46,41,77,66,51,30.27,30.12,8,1,8,0.00
2013-11-13,74,56,47,56,46,40,81,69,49,30.24,30.06,6,1,6,0.00
2013-11-14,62,52,46,53,45,37,86,76,62,30.09,29.85,8,1,8,0.00
2013-11-15,66,52,44,44,37,31,72,58,44,29.85,29.71,8,2,8,0.00
2013-11-16,66,52,42,46,39,31,70,62,47,29.88,29.74,12,2,12,0.00
2013-11-17,63,49,41,51,41,34,81,73,63,30.06,29.88,7,1,7,0.00
2013-11-18,60,49,40,49,42,35,84,75,63,30.15,30.03,7,1,7,0.00
2013-11-19,58,54,50,57,54,46,98,97,84,30.06,29.88,9,1,9,1.04
2013-11-20,59,56,52,59,55,51,98,98,98,29.88,29.79,6,1,6,0.83
2013-11-21,58,52,49,57,50,35,98,95,56,29.94,29.85,24,3,24,0.00
2013-11-22,71,56,47,42,33,27,58,42,33,29.97,29.88,20,4,20,0.00
2013-11-23,70,54,41,40,28,20,47,36,30,30.09,29.91,10,2,10,0.00
2013-11-24,67,47,36,43,31,22,72,55,38,30.24,30.06,6,1,6,0.00
2013-11-25,65,47,36,46,37,30,82,68,47,30.30,30.21,7,1,7,0.00
2013-11-26,64,48,39,46,38,33,82,69,49,30.24,30.00,4,1,4,0.00
2013-11-27,69,50,39,50,39,33,82,67,44,30.00,29.79,8,1,8,0.00
2013-11-28,69,51,41,48,39,35,82,66,44,30.03,29.85,7,1,7,0.00
2013-11-29,69,51,40,48,39,34,81,66,44,30.18,30.03,5,1,5,0.00
2013-11-30,68,52,42,49,41,36,82,68,48,30.27,30.15,5,1,5,0.00
2013-12-1,68,52,43,51,42,37,84,70,47,30.30,30.21,5,1,5,0.00
2013-12-2,65,53,43,51,45,38,87,74,53,30.21,29.91,11,2,11,0.00
2013-12-3,57,49,40,50,34,24,83,56,37,29.91,29.79,16,3,16,0.00
2013-12-4,53,41,33,32,25,19,64,53,38,30.06,29.91,6,2,6,0.00
2013-12-5,51,37,27,29,20,13,58,52,40,30.12,30.03,6,1,6,0.00
2013-12-6,48,39,28,46,30,17,98,71,49,30.15,29.88,13,2,13,1.18
2013-12-7,44,36,30,44,35,28,98,96,88,30.24,29.88,15,1,15,0.00
2013-12-8,45,34,28,35,27,20,95,78,58,30.27,30.18,7,2,7,0.00
2013-12-9,50,34,25,34,24,19,78,65,47,30.39,30.27,7,1,7,0.00
2013-12-10,51,36,26,33,25,18,73,63,49,30.39,30.18,6,1,6,0.00
2013-12-11,56,40,30,37,29,23,77,66,50,30.21,30.15,6,1,6,0.00
2013-12-12,56,41,32,38,30,25,79,66,48,30.27,30.15,6,1,6,0.00
2013-12-13,59,43,32,40,32,26,79,66,47,30.30,30.18,5,1,5,0.00
2013-12-14,61,44,36,43,35,29,82,70,51,30.39,30.27,5,1,5,0.00
2013-12-15,59,44,34,43,34,28,84,71,52,30.36,30.21,4,1,4,0.00
2013-12-16,61,46,37,44,36,31,81,69,50,30.21,30.09,6,1,6,0.00
2013-12-17,60,47,39,44,37,32,80,69,55,30.15,30.00,4,1,4,0.00
2013-12-18,60,48,40,45,39,34,80,72,56,30.00,29.74,7,1,7,0.00
2013-12-19,60,49,40,39,31,17,77,53,27,29.91,29.68,17,4,17,0.00
2013-12-20,54,45,38,30,23,19,49,43,36,29.97,29.88,4,2,4,0.00
2013-12-21,65,52,45,47,39,30,74,63,47,30.06,29.94,8,2,8,0.00
2013-12-22,63,49,40,47,39,34,83,70,51,30.27,30.06,4,1,4,0.00
2013-12-23,64,48,39,46,38,33,81,69,51,30.36,30.27,5,1,5,0.00
2013-12-24,64,50,41,48,40,35,82,69,51,30.30,30.15,5,1,5,0.00
2013-12-25,61,47,38,44,36,31,82,68,50,30.27,30.15,4,1,4,0.00
2013-12-26,62,47,37,44,34,29,75,62,49,30.21,30.12,4,1,4,0.00
2013-12-27,55,45,38,39,33,28,73,64,53,30.18,30.06,4,1,4,0.00
2013-12-28,61,46,34,40,32,26,75,58,41,30.09,29.97,8,2,8,0.00
2013-12-29,63,48,38,39,28,20,52,45,38,30.15,30.03,8,2,8,0.00
2013-12-30,61,46,36,40,29,22,60,52,45,30.24,30.15,4,1,4,0.00
2013-12-31,59,46,38,39,32,27,70,60,47,30.27,30.15,5,1,5,0.00
2014-1-1,63,46,36,41,32,28,72,59,44,30.18,30.09,5,1,5,0.00
2014-1-2,61,48,38,41,33,27,68,57,46,30.15,30.03,5,1,5,0.00